Location: Newark
(41.7563°N, 42.8282°E)
Time: 23:25:40
(UTC+00:00)

OTV 5 (USA 277) - Pass Details

Date: 22 October 2019
Orbit: 310 x 324 km, 54.5° (Epoch: 17 October)

Event Time Altitude Azimuth Distance (km) Brightness Sun altitude
Exits shadow 02:32:49 11° 227° (SW) 1,200 ? -11.0°
Drops below altitude 10° 02:33:11 10° 219° (SW) 1,227 ? -11.0°
Sets 02:36:22 0° 177° (S) 2,047 ? -10.4°
